Weather History for Hailey, ID

Change the Weather History Date:

Friday, September 13, 2013

  Actual Average Record
Temperature  
Mean Temperature 63 °F -  
Max Temperature 73 °F 71 °F 86 °F (2000)
Min Temperature 53 °F 43 °F 33 °F (2003)
Degree Days  
Heating Degree Days 2    
Growing Degree Days 13 (Base 50)    
Moisture  
Dew Point 53 °F    
Average Humidity 85    
Maximum Humidity 94    
Minimum Humidity 41    
Precipitation  
Precipitation 0.00 in - - ()
Sea Level Pressure  
Sea Level Pressure 30.08 in    
Wind  
Wind Speed 11 mph (NW)    
Max Wind Speed 15 mph    
Max Gust Speed 17 mph    
Visibility 10 miles    
Events Rain , Thunderstorm    
Averages and records for this station are not official NWS values.
T = Trace of Precipitation, MM = Missing Value Source: NWS Daily Summary

Daily Weather History Graph

Daily Weather History Graph

Search for Another Location

Airport:

Trip Planner

Search our weather history database for the weather conditions in past years. The results will help you decide how hot, cold, wet, or windy it might be!

Date:

Astronomy

Sep. 13, 2013 Rise Set
Actual Time 7:14 AM MDT 7:50 PM MDT
Civil Twilight 6:45 AM MDT 8:19 PM MDT
Nautical Twilight 6:11 AM MDT 8:53 PM MDT
Astronomical Twilight 5:36 AM MDT 9:28 PM MDT
Moon 3:51 PM MDT (9/13) 12:40 AM MDT (9/13)
Length of Visible Light 13h 33m
Length of Day
12h 35m
Waxing Gibbous, 62% of the Moon is Illuminated
Sep 13
Waxing Gibbous
Sep 19
Full
Sep 26
Last Quarter
Oct 4
New
Oct 11
First Quarter

Hourly Weather History & Observations

Time (MDT) Temp. Dew Point Humidity Pressure Visibility Wind Dir Wind Speed Gust Speed Precip Events Conditions
12:15 AM 55.4 °F 53.6 °F 94% 30.18 in 10.0 mi NW 13.8 mph - N/A Rain Light Rain
12:35 AM 55.4 °F 53.6 °F 94% 30.16 in 10.0 mi NNW 11.5 mph - N/A   Drizzle
12:55 AM 55.4 °F 53.6 °F 94% 30.16 in 10.0 mi NNW 11.5 mph - N/A   Light Drizzle
1:15 AM 57.2 °F 53.6 °F 88% 30.16 in 10.0 mi NNW 11.5 mph - N/A   Overcast
1:35 AM 55.4 °F 53.6 °F 94% 30.15 in 10.0 mi NNW 13.8 mph - N/A   Scattered Clouds
1:55 AM 55.4 °F 53.6 °F 94% 30.13 in 10.0 mi NW 15.0 mph - N/A   Mostly Cloudy
2:15 AM 55.4 °F 53.6 °F 94% 30.13 in 10.0 mi NW 10.4 mph - N/A   Scattered Clouds
2:35 AM 55.4 °F 53.6 °F 94% 30.13 in 10.0 mi NW 10.4 mph - N/A   Clear
2:55 AM 55.4 °F 53.6 °F 94% 30.13 in 10.0 mi NW 9.2 mph - N/A   Scattered Clouds
3:15 AM 55.4 °F 53.6 °F 94% 30.12 in 10.0 mi NW 8.1 mph - N/A   Mostly Cloudy
3:35 AM 55.4 °F 53.6 °F 94% 30.12 in 10.0 mi NW 6.9 mph - N/A   Overcast
3:55 AM 55.4 °F 53.6 °F 94% 30.12 in 10.0 mi NW 6.9 mph - N/A   Scattered Clouds
4:15 AM 55.4 °F 51.8 °F 88% 30.12 in 10.0 mi WNW 8.1 mph - N/A   Clear
4:35 AM 55.4 °F 51.8 °F 88% 30.12 in 10.0 mi NW 6.9 mph - N/A   Scattered Clouds
4:55 AM 55.4 °F 51.8 °F 88% 30.11 in 10.0 mi NW 8.1 mph - N/A   Mostly Cloudy
5:15 AM 55.4 °F 51.8 °F 88% 30.11 in 10.0 mi NW 9.2 mph - N/A   Scattered Clouds
5:35 AM 53.6 °F 51.8 °F 94% 30.11 in 10.0 mi NW 9.2 mph - N/A   Clear
5:55 AM 53.6 °F 51.8 °F 94% 30.10 in 10.0 mi NNW 10.4 mph - N/A   Clear
6:15 AM 53.6 °F 51.8 °F 94% 30.09 in 10.0 mi WNW 9.2 mph - N/A   Clear
6:35 AM 53.6 °F 51.8 °F 94% 30.10 in 10.0 mi NW 11.5 mph 16.1 mph N/A   Clear
6:47 AM 55.4 °F 51.8 °F 88% 30.10 in 10.0 mi WNW 13.8 mph - N/A   Scattered Clouds
6:55 AM 53.6 °F 51.8 °F 94% 30.10 in 10.0 mi NNW 11.5 mph - N/A   Clear
7:47 AM 55.4 °F 51.8 °F 88% 30.10 in 10.0 mi NW 9.2 mph - N/A   Mostly Cloudy
8:47 AM 57.2 °F 51.8 °F 82% 30.11 in 10.0 mi NW 9.2 mph - N/A   Mostly Cloudy
9:47 AM 59.0 °F 53.6 °F 82% 30.10 in 10.0 mi NW 9.2 mph - N/A   Mostly Cloudy
10:55 AM 60.8 °F 53.6 °F 77% 30.08 in 10.0 mi West 6.9 mph - N/A   Mostly Cloudy
12:47 PM 69.8 °F 53.6 °F 56% 30.04 in 10.0 mi SE 10.4 mph - N/A   Mostly Cloudy
1:47 PM 71.6 °F 55.4 °F 57% 30.02 in 10.0 mi ESE 10.4 mph - N/A   Mostly Cloudy
3:15 PM 71.6 °F 53.6 °F 53% 29.99 in 10.0 mi SE 10.4 mph - N/A Thunderstorm Mostly Cloudy
3:50 PM 73.4 °F 48.2 °F 41% 29.99 in 10.0 mi East 12.7 mph - N/A Thunderstorm Mostly Cloudy
4:50 PM 62.6 °F 50.0 °F 63% 30.02 in 10.0 mi WSW 8.1 mph - N/A Thunderstorm Overcast
5:47 PM 59.0 °F 53.6 °F 82% 30.02 in 10.0 mi WNW 8.1 mph - N/A Rain , Thunderstorm Light Thunderstorms and Rain
6:20 PM 60.8 °F 53.6 °F 77% 30.01 in 10.0 mi NW 11.5 mph 17.3 mph N/A Rain Light Rain
6:50 PM 57.2 °F 55.4 °F 94% 30.00 in 10.0 mi West 8.1 mph - N/A Rain Light Rain
7:50 PM 59.0 °F 55.4 °F 88% 29.99 in 10.0 mi WNW 6.9 mph - N/A   Mostly Cloudy
8:50 PM 59.0 °F 55.4 °F 88% 30.00 in 10.0 mi WNW 11.5 mph - N/A   Mostly Cloudy
9:50 PM 60.8 °F 53.6 °F 77% 30.00 in 10.0 mi NW 8.1 mph - N/A   Mostly Cloudy
10:47 PM 59.0 °F 53.6 °F 82% 29.99 in 10.0 mi WNW 11.5 mph - N/A   Mostly Cloudy
11:15 PM 57.2 °F 53.6 °F 88% 29.99 in 10.0 mi NW 15.0 mph - N/A   Overcast
11:35 PM 57.2 °F 51.8 °F 82% 29.99 in 10.0 mi WNW 11.5 mph - N/A   Scattered Clouds
11:55 PM 55.4 °F 51.8 °F 88% 30.00 in 10.0 mi WNW 8.1 mph - N/A   Clear